Regional Weather Roundup
Issued by NWS Grand Forks, ND

Home | Current Version | Previous Version | Graphics & Text | Print | Product List | Glossary On
Versions: 1 2 3 4 5 6 7 8 9 10 11 12 13 14 15 16 17 18 19 20 21 22 23 24 25 26 27 28 29 30 31 32 33 34 35 36 37 38 39 40 41 42 43 44 45 46 47 48 49 50
000
ASUS43 KFGF 132110
RWRFGF
PRAIRIE TO PINES  WEATHER ROUNDUP
NATIONAL WEATHER SERVICE EASTERN NORTH DAKOTA/GRAND FORKS ND
300 PM CST SAT FEB 13 2016

 **SATELLITE DATA USED TO AUGMENT SKY COVER AT AUTOMATED STATIONS**
 *****  WEATHER ACROSS EASTERN NORTH DAKOTA  *****

CITY           SKY/WX    TMP DP  RH WIND       PRES   REMARKS
GRAND FORKS    PTSUNNY   10  -2  58 S20       30.30F WCI  -9
GRAND FRKS AFB CLOUDY     9  -3  60 S18       30.27F WCI -10
DEVILS LAKE    CLOUDY     6  -1  73 SE20G25   30.12F WCI -14
FARGO          CLOUDY    12   0  58 SE16G25   30.30F WCI  -5
WAHPETON ARPT  CLOUDY    12   0  57 SE22      30.32F WCI  -7
$$

 ***** WEATHER ACROSS CENTRAL AND WESTERN NORTH DAKOTA  *****

CITY           SKY/WX    TMP DP  RH WIND       PRES   REMARKS
BISMARCK       FLURRIES  19  10  68 SE21G28   29.98F WCI   3
MINOT          FLURRIES  18   7  62 SE15G23   29.95F WCI   4
JAMESTOWN      CLOUDY     9   0  67 SE16G26   30.13F WCI  -8
MINOT AFB      CLOUDY    17   9  70 SE20      29.94F WCI   1
GARRISON         N/A     13   9  84 S15       29.95F WCI  -3
WILLISTON      LGT SNOW  21  16  81 SE10      29.82F WCI  10
DICKINSON      MIX PCPN  18  15  88 SE16      29.78F VSB 1   WCI   3
HETTINGER      CLOUDY    22  19  89 SE12      29.81F WCI  10
$$

 *****  OTHER AIRPORT OBSERVATIONS IN OUR AREA  *****

CITY           SKY/WX    TMP DP  RH WIND       PRES   REMARKS
WALHALLA       FAIR       7  -2  66 SE17      30.25F WCI -12
GRAFTON AIRPOR FAIR       7  -2  66 SE20      30.31F WCI -13
VALLEY CITY AR FLURRIES   7   0  72 SE18G24   30.20F WCI -12
CANDO          NOT AVBL
CAVALIER APRT  FAIR       7  -2  66 SE14G21   30.27F WCI -10
GWINNER        CLOUDY     9   3  78 SE21      30.23F WCI -11
SHEYENNE NWR     N/A      9  -3  59 SE14      29.95S WCI  -7
ROLLA          CLOUDY     5  -2  72 S18G29    30.05F WCI -15
 ***** THE ABOVE OBSERVATIONS ARE NON NWS ARE NOT QUALITY
       CONTROLLED AND MAY MIS-REPORT RAIN FOR SNOW...
$$

  *****  WEATHER ACROSS NORTHERN MINNESOTA  *****

CITY           SKY/WX    TMP DP  RH WIND       PRES   REMARKS
FLAG ISLAND    CLOUDY     0 -15  50 SE5       30.37F WCI -10
WARROAD        CLOUDY     1  -8  66 N7        30.36F WCI -11
ROSEAU         CLOUDY     5  -6  61 E7        30.35F WCI  -7
HALLOCK        SUNNY      9  -4  56 SE17      30.31F WCI -10
THF RVR FALLS  SUNNY      9 -11  40 SE14      30.32F WCI  -8
BAUDETTE       CLOUDY     6 -13  41 SE8       30.36F WCI  -7
WASKISH        SUNNY     12  -9  37 SE5       30.36F WCI   4
CROOKSTON      SUNNY      9  -4  56 S16       30.34F WCI  -9
STEPHEN NDAWN    N/A      9  -2  61 SE15        N/A  WCI  -8
GREENBUSH NDAW   N/A      7  -6  56 SE10        N/A  WCI  -8
$$
  *****  WEATHER ACROSS CENTRAL AND WEST MINNESOTA  *****

CITY           SKY/WX    TMP DP  RH WIND       PRES   REMARKS
FOSSTON        SUNNY     18  -4  38 SE9       30.31F WCI   6
BEMIDJI        CLOUDY     8  -9  46 E10       30.34F WCI  -7
PARK RAPIDS    SUNNY     11 -10  38 SE10      30.33F WCI  -3
ELBOW LAKE     CLOUDY    10   0  61 SE20      30.34F WCI  -8
WADENA         SUNNY      9  -8  47 SE10      30.35F WCI  -6
DETROIT LAKES  SUNNY     10  -6  48 SE17      30.31F WCI  -7
MOORHEAD       CLOUDY    10   0  61 SE21      30.31F WCI  -9
FERGUS FALLS   CLOUDY    10  -2  56 SE17      30.36F WCI  -7
MORRIS MN      CLOUDY    10   1  67 SE22      30.33F WCI  -9
STAPLES        SUNNY      9 -11  40 E7        30.37F WCI  -3
$$
  *****  WEATHER ELSEWHERE ACROSS MINNESOTA  *****

CITY           SKY/WX    TMP DP  RH WIND       PRES   REMARKS
DULUTH         SUNNY      8 -13  37 CALM      30.39F
INTRNTL FALLS  CLOUDY     5 -15  39 SE5       30.39F WCI  -4
ELY            SUNNY      7 -11  43 CALM      30.38F
CLOQUET        SUNNY      9 -18  28 CALM      30.41F
WHEATON        CLOUDY    10   1  67 SE21      30.35F WCI  -9
BRAINERD       SUNNY      7 -10  46 S7        30.41F WCI  -5
HIBBING        SUNNY      7 -14  37 NW5       30.38F WCI  -2
ALEXANDRIA     CLOUDY    10  -5  50 SE15      30.34F WCI  -7
SAINT CLOUD    SUNNY      9  -6  50 SE13      30.43F WCI  -7
MINNEAPOLIS    SUNNY      9 -10  42 SE8       30.49F WCI  -3
$$

  *****  WEATHER ACROSS SOUTH DAKOTA  *****

CITY           SKY/WX    TMP DP  RH WIND       PRES   REMARKS
SIOUX FALLS    FLURRIES   9  -1  64 SE17      30.30F WCI  -9
BROOKINGS      CLOUDY     8  -2  63 SE17      30.26F WCI -10
WATERTOWN      CLOUDY     8  -3  61 SE20      30.22F WCI -11
HURON          CLOUDY    13   3  64 SE22G32   30.18F WCI  -6
SISSETON         N/A      8   0  69 S21       30.28F WCI -12
ABERDEEN       CLOUDY    15   4  61 S28       30.17F WCI  -5
MITCHELL       CLOUDY    13   5  70 SE24G33   30.23F WCI  -7
PIERRE         CLOUDY    28  19  69 SE20      29.98F WCI  15
MOBRIDGE       CLOUDY    20  15  81 SE23      29.94F HAZE    WCI   3
RAPID CITY     SUNNY     50  32  50 S9        29.78F
$$

  *****  SOME WEATHER IN NEARBY STATES *****

CITY           SKY/WX    TMP DP  RH WIND       PRES   REMARKS
GLASGOW MT     CLOUDY    30  27  88 SW3       29.78F
GREAT FALLS MT SUNNY     46  19  34 W29G35    29.94S
CHEYENNE WY    CLOUDY    59  16  18 W24G38    29.95F
SCOTTSBLUFF NE CLOUDY    51  32  48 CALM      29.87F
OMAHA NE       CLOUDY    18   5  57 SE15      30.40F WCI   4
DES MOINES IA  CLOUDY    14  -2  49 SE9       30.49F WCI   2
DAVENPORT IA   CLOUDY    18  -7  32 N3        30.54F
CHICAGO IL     MOSUNNY   17  -5  37 NW9       30.53S WCI   6
EAU CLAIRE WI  SUNNY      6 -11  45 CALM      30.51F
LA CROSSE WI   SUNNY     10 -10  40 CALM      30.53F
$$

  *****  SOME NATIONAL WEATHER *****

CITY           SKY/WX    TMP DP  RH WIND       PRES   REMARKS
LA GUARDIA NY  MOSUNNY   17  -4  39 NW32G41   30.15R WCI  -3
RALEIGH NC     MOSUNNY   33  -2  22 N7G16     30.29S
ATLANTA GA     SUNNY     42   6  22 NW13G23   30.32F
NEW ORLEANS LA MOSUNNY   61  30  31 NE8       30.35F
OKLAHOMA CITY  MOSUNNY   57  31  37 S15       30.18F
ALBUQUERQUE NM MOSUNNY   65  14  14 SW7       30.15F
SALT LAKE CITY CLOUDY    31  28  89 NW5       30.33F FOG
LOS ANGELES CA MOSUNNY   60  53  77 W10       30.06S FOG
BOISE ID       MOSUNNY   50  31  48 NW12      30.31F
SEATTLE WA     LGT RAIN  50  42  74 S15G23    30.19F
$$

*** WEATHER ACROSS MANITOBA...SASKATCHEWAN AND ONTARIO ***
                ***ONTARIO***

CITY           SKY/WX    TMP DP  RH WIND       PRES   REMARKS
GERALDTON      MOSUNNY   -2 -15  55 W6        30.35S WCI -14
THUNDER BAY    MOSUNNY    7 -11  43 W7        30.45F WCI  -5
SIOUX LOOKOUT  PTSUNNY    0 -15  50 SW3       30.38F
TORONTO        MOSUNNY    1 -17  42 NW14G22   30.33R WCI -17
BIG TROUT LK   SUNNY     -4 -13  65 S6        30.35F WCI -16
PICKLE LAKE    CRYSTALS   1 -13  51 W5        30.33F WCI  -8
DRYDEN         SUNNY      1 -13  51 S7        30.37F WCI -11
KENORA         PTSUNNY    1 -13  51 SE5       30.36F WCI  -8
$$
                *** MANITOBA***

CITY           SKY/WX    TMP DP  RH WIND       PRES   REMARKS
BRANDON        PTSUNNY    7  -4  61 SE18      30.09F WCI -12
DAUPHIN        CLOUDY     5  -4  66 SE15      30.07F WCI -13
ISLAND LAKE    MOSUNNY    1  -9  60 SE8       30.29F WCI -12
PILOT MOUND      N/A      3  -2  78 SE23G29     N/A  WCI -19
THE PAS        PTSUNNY    3  -9  55 SE22G28   30.00F WCI -19
THOMPSON       MOSUNNY    3  -9  55 S13G20    30.11F WCI -14
WINNIPEG       PTSUNNY    5  -9  51 SE18      30.29F WCI -15
LYNN LAKE      FLURRIES   9  -4  56 S12G17    29.87F WCI  -6
CHURCHILL      CLOUDY    -2 -13  60 S12       30.15F WCI -20
GILLAM         CLOUDY     1 -13  51 S8        30.22F WCI -12
$$
                ***SASKATCHEWAN***

CITY           SKY/WX    TMP DP  RH WIND       PRES   REMARKS
ESTEVAN        FLURRIES  18  10  73 SE16      29.84F WCI   3
KINDERSLEY     FLURRIES  23  19  86 NW13      29.78R WCI  11
LLOYDMINSTER   PTSUNNY   25  23  93 W9        29.73S WCI  15
PRINCE ALBERT  FLURRIES   9   3  78 E7        29.83F WCI  -3
REGINA         CLOUDY    21  16  79 SE21G26   29.75F WCI   6
YORKTON        LGT SNOW   7   3  85 SE20G29   29.88F WCI -13
N. BATTLEFORD  CLOUDY    18  12  79 SE3       29.80S
LA RONGE       FLURRIES   7   1  78 SE14      29.80F WCI -10
SASKATOON      CLOUDY    19  16  86 E3        29.79S
SWIFT CURRENT  CLOUDY    23  23 100 NW21G31   29.72R WCI   8
$$
NOTE: THESE ARE AUTOMATED STATIONS WITH LIMITED QUALITY CONTROL
      "FAIR" INDICATES FEW OR NO CLOUDS BELOW 12,000 FEET WITH NO
      SIGNIFICANT WEATHER AND/OR OBSTRUCTIONS TO VISIBILITY.
      SKY/WX - SKY CONDITION AND SIGNIFICANT WEATHER.
      TMP - AIR TEMPERATURE.    DP   - DEWPOINT TEMPERATURE.
      RH  - RELATIVE HUMIDITY.  PRES - PRESSURE.
      HX  - HEAT INDEX.         WCI  - WIND CHILL INDEX.
$



USA.gov is the U.S. government's official web portal to all federal, state and local government web resources and services.